When you browse on this site, cookies collect data to enhance your experience and personalize the content and advertising you see.
Visit our Privacy Policy to learn more. By continuing to use the site, you agree to this use of cookies and data.

Hourly Weather Izh-Bayki

Today, 26 September, Saturday

Time Temperature Precipitation Wind Pressure Humidity
00:00 +9°C° 0 mm 2 mps 756 mmHg 65%
01:00 +9°C° 0 mm 2 mps 757 mmHg 65%
02:00 +9°C° 0 mm 2 mps 757 mmHg 66%
03:00 +9°C° 0 mm 2 mps 757 mmHg 65%
04:00 +9°C° 0 mm 2 mps 757 mmHg 66%
05:00 +8°C° 0 mm 2 mps 757 mmHg 68%
06:00 +8°C° 0 mm 3 mps 757 mmHg 69%
07:00 +10°C° 0 mm 3 mps 757 mmHg 66%
08:00 +11°C° 0 mm 3 mps 758 mmHg 63%
09:00 +13°C° 0 mm 3 mps 758 mmHg 60%
10:00 +14°C° 0 mm 3 mps 758 mmHg 57%
11:00 +16°C° 0 mm 3 mps 758 mmHg 54%
12:00 +17°C° 0 mm 3 mps 758 mmHg 51%
13:00 +17°C° 0 mm 3 mps 758 mmHg 52%
14:00 +17°C° 0 mm 3 mps 758 mmHg 52%
15:00 +17°C° 0 mm 3 mps 758 mmHg 52%
16:00 +16°C° 0 mm 2 mps 758 mmHg 56%
17:00 +15°C° 0 mm 2 mps 758 mmHg 59%
18:00 +13°C° 0 mm 2 mps 758 mmHg 62%
19:00 +13°C° 0 mm 2 mps 758 mmHg 63%
20:00 +12°C° 0 mm 2 mps 758 mmHg 64%
21:00 +10°C° 0 mm 2 mps 759 mmHg 65%
22:00 +10°C° 0 mm 2 mps 759 mmHg 65%
23:00 +10°C° 0 mm 2 mps 759 mmHg 65%

Tomorrow, 27 September, Sunday

Time Temperature Precipitation Wind Pressure Humidity
00:00 +10°C° 0 mm 2 mps 759 mmHg 65%
01:00 +10°C° 0 mm 2 mps 759 mmHg 64%
02:00 +10°C° 0 mm 2 mps 760 mmHg 64%
03:00 +9°C° 0 mm 2 mps 760 mmHg 63%
04:00 +9°C° 0 mm 2 mps 760 mmHg 64%
05:00 +9°C° 0 mm 2 mps 760 mmHg 65%
06:00 +8°C° 0 mm 2 mps 760 mmHg 67%
07:00 +10°C° 0 mm 2 mps 760 mmHg 62%
08:00 +12°C° 0 mm 2 mps 760 mmHg 58%
09:00 +14°C° 0 mm 2 mps 760 mmHg 54%
10:00 +15°C° 0 mm 2 mps 760 mmHg 51%
11:00 +16°C° 0 mm 2 mps 760 mmHg 48%
12:00 +17°C° 0 mm 2 mps 760 mmHg 45%
13:00 +17°C° 0 mm 2 mps 760 mmHg 46%
14:00 +17°C° 0 mm 2 mps 760 mmHg 47%
15:00 +18°C° 0 mm 1 mps 760 mmHg 47%
16:00 +16°C° 0 mm 1 mps 760 mmHg 52%
17:00 +14°C° 0 mm 1 mps 760 mmHg 56%
18:00 +13°C° 0 mm 1 mps 760 mmHg 60%
19:00 +13°C° 0 mm 1 mps 760 mmHg 60%
20:00 +12°C° 0 mm 1 mps 760 mmHg 60%
21:00 +12°C° 0 mm 1 mps 760 mmHg 60%
22:00 +12°C° 0 mm 1 mps 760 mmHg 60%
23:00 +12°C° 0 mm 1 mps 760 mmHg 61%

Day after tomorrow, 28 September, Monday

Time Temperature Precipitation Wind Pressure Humidity
00:00 +11°C° 0 mm 1 mps 761 mmHg 61%
01:00 +11°C° 0 mm 1 mps 761 mmHg 62%
02:00 +11°C° 0 mm 1 mps 761 mmHg 62%
03:00 +11°C° 0 mm 1 mps 761 mmHg 63%
04:00 +10°C° 0 mm 1 mps 761 mmHg 64%
05:00 +10°C° 0 mm 1 mps 761 mmHg 66%
06:00 +10°C° 0 mm 1 mps 761 mmHg 67%
07:00 +11°C° 0 mm 1 mps 761 mmHg 62%
08:00 +13°C° 0 mm 1 mps 761 mmHg 58%
09:00 +14°C° 0 mm 1 mps 761 mmHg 54%
10:00 +15°C° 0 mm 1 mps 761 mmHg 50%
11:00 +16°C° 0 mm 1 mps 761 mmHg 47%
12:00 +18°C° 0 mm 1 mps 761 mmHg 44%
13:00 +19°C° 0 mm 1 mps 761 mmHg 43%
14:00 +19°C° 0 mm 1 mps 761 mmHg 43%
15:00 +19°C° 0 mm 1 mps 761 mmHg 43%
16:00 +16°C° 0 mm 1 mps 761 mmHg 48%
17:00 +14°C° 0 mm 0 mps 761 mmHg 52%
18:00 +12°C° 0 mm 0 mps 761 mmHg 57%
19:00 +12°C° 0 mm 0 mps 761 mmHg 58%
20:00 +11°C° 0 mm 0 mps 761 mmHg 59%
21:00 +11°C° 0 mm 0 mps 761 mmHg 60%
22:00 +11°C° 0 mm 0 mps 761 mmHg 61%
23:00 +10°C° 0 mm 0 mps 761 mmHg 62%

29 September, Tuesday

Time Temperature Precipitation Wind Pressure Humidity
00:00 +11°C° 0 mm 1 mps 761 mmHg 63%
01:00 +11°C° 0 mm 1 mps 761 mmHg 64%
02:00 +10°C° 0 mm 1 mps 761 mmHg 64%
03:00 +9°C° 0 mm 0 mps 761 mmHg 65%
04:00 +10°C° 0 mm 1 mps 761 mmHg 66%
05:00 +10°C° 0 mm 1 mps 761 mmHg 66%
06:00 +9°C° 0 mm 1 mps 762 mmHg 66%
07:00 +11°C° 0 mm 1 mps 762 mmHg 62%
08:00 +13°C° 0 mm 1 mps 762 mmHg 58%
09:00 +14°C° 0 mm 1 mps 761 mmHg 54%
10:00 +15°C° 0 mm 1 mps 761 mmHg 50%
11:00 +18°C° 0 mm 1 mps 761 mmHg 47%
12:00 +19°C° 0 mm 1 mps 761 mmHg 44%
13:00 +19°C° 0 mm 1 mps 761 mmHg 44%
14:00 +19°C° 0 mm 1 mps 761 mmHg 43%
15:00 +19°C° 0 mm 1 mps 761 mmHg 43%
16:00 +18°C° 0 mm 1 mps 761 mmHg 48%
17:00 +15°C° 0 mm 1 mps 760 mmHg 52%
18:00 +14°C° 0 mm 1 mps 760 mmHg 57%
19:00 +13°C° 0 mm 1 mps 760 mmHg 60%
20:00 +13°C° 0 mm 2 mps 760 mmHg 62%
21:00 +12°C° 0 mm 2 mps 760 mmHg 64%
22:00 +12°C° 0 mm 2 mps 760 mmHg 66%
23:00 +10°C° 0 mm 2 mps 760 mmHg 68%

30 September, Wednesday

Time Temperature Precipitation Wind Pressure Humidity
00:00 +10°C° 0 mm 2 mps 760 mmHg 70%
01:00 +10°C° 0 mm 2 mps 760 mmHg 71%
02:00 +9°C° 0 mm 2 mps 760 mmHg 72%
03:00 +9°C° 0 mm 2 mps 760 mmHg 74%
04:00 +9°C° 0 mm 2 mps 760 mmHg 75%
05:00 +9°C° 0 mm 2 mps 760 mmHg 77%
06:00 +8°C° 0 mm 2 mps 760 mmHg 79%
07:00 +10°C° 0 mm 2 mps 760 mmHg 74%
08:00 +13°C° 0 mm 2 mps 760 mmHg 69%
09:00 +14°C° 0 mm 2 mps 760 mmHg 64%
10:00 +15°C° 0 mm 2 mps 760 mmHg 60%
11:00 +17°C° 0 mm 2 mps 760 mmHg 56%
12:00 +18°C° 0 mm 2 mps 760 mmHg 51%
13:00 +18°C° 0 mm 2 mps 760 mmHg 51%
14:00 +18°C° 0 mm 2 mps 759 mmHg 51%
15:00 +18°C° 0 mm 2 mps 759 mmHg 51%
16:00 +17°C° 0 mm 2 mps 759 mmHg 55%
17:00 +16°C° 0 mm 2 mps 759 mmHg 60%
18:00 +14°C° 0 mm 2 mps 759 mmHg 64%
19:00 +14°C° 0 mm 2 mps 759 mmHg 66%
20:00 +13°C° 0 mm 2 mps 759 mmHg 69%
21:00 +13°C° 0 mm 2 mps 759 mmHg 71%
22:00 +13°C° 0 mm 2 mps 759 mmHg 72%
23:00 +12°C° 0 mm 2 mps 759 mmHg 74%

1 October, Thursday

Time Temperature Precipitation Wind Pressure Humidity
00:00 +12°C° 0 mm 2 mps 759 mmHg 76%
01:00 +12°C° 0 mm 2 mps 759 mmHg 77%
02:00 +12°C° 0 mm 1 mps 759 mmHg 78%
03:00 +11°C° 0 mm 1 mps 759 mmHg 80%
04:00 +11°C° 0 mm 1 mps 760 mmHg 81%
05:00 +11°C° 0 mm 1 mps 760 mmHg 82%
06:00 +11°C° 0 mm 1 mps 760 mmHg 83%
07:00 +12°C° 0 mm 1 mps 760 mmHg 77%
08:00 +14°C° 0 mm 2 mps 760 mmHg 71%
09:00 +15°C° 0 mm 2 mps 760 mmHg 66%
10:00 +16°C° 0 mm 2 mps 760 mmHg 62%
11:00 +17°C° 0 mm 2 mps 760 mmHg 58%
12:00 +19°C° 0 mm 2 mps 760 mmHg 54%
13:00 +19°C° 0 mm 2 mps 760 mmHg 54%
14:00 +19°C° 0 mm 2 mps 760 mmHg 54%
15:00 +19°C° 0 mm 2 mps 760 mmHg 53%
16:00 +17°C° 0 mm 2 mps 759 mmHg 59%
17:00 +16°C° 0 mm 2 mps 759 mmHg 65%
18:00 +14°C° 0 mm 2 mps 759 mmHg 71%
19:00 +14°C° 0 mm 2 mps 759 mmHg 73%
20:00 +13°C° 0 mm 2 mps 760 mmHg 74%
21:00 +13°C° 0 mm 2 mps 760 mmHg 75%
22:00 +12°C° 0 mm 2 mps 760 mmHg 76%
23:00 +12°C° 0 mm 2 mps 760 mmHg 77%
Show more